Regional Weather Roundup
Issued by NWS Lake Charles, LA

Home | Current Version | Previous Version | Text Only | Print | Product List | Glossary On
Versions: 1 2 3 4 5 6 7 8 9 10 11 12 13 14 15 16 17 18 19 20 21 22 23 24 25 26 27 28 29 30 31 32 33 34 35 36 37 38 39 40 41 42 43 44 45 46 47 48 49 50
000
ASUS44 KLCH 231910
RWRLCH
REGIONAL WEATHER ROUNDUP
NATIONAL WEATHER SERVICE LAKE CHARLES LA
200 PM CDT THU MAR 23 2017

Note: "fair" indicates few or no clouds below 12,000 feet with no
significant weather and/or obstructions to visibility.


ACROSS SOUTHEAST TEXAS

CITY           SKY/WX    TMP DP  RH WIND       PRES   REMARKS
BEAUMONT       SUNNY     84  54  35 S13       30.15F
BEAUMONT CITY  FAIR     N/A N/A N/A S14       30.15F
ORANGE         CLEAR     80  56  43 S9        30.18S
JASPER         SUNNY     83  57  40 S10G17    30.16F
$$

ACROSS CENTRAL LOUISIANA

CITY           SKY/WX    TMP DP  RH WIND       PRES   REMARKS
LEESVILLE      SUNNY     82  54  36 S14       30.14F
FULLERTON      FAIR      84  50  30 VRB6      30.13F
ALEXANDRIA INT SUNNY     83  53  35 S12       30.14F
ESLER FIELD    SUNNY     83  55  38 S9        30.16F
DERIDDER       FAIR      81  49  32 S15G21    30.18F
OAKDALE        CLEAR     81  56  41 SE5       30.17F
OPELOUSAS      FAIR      83  56  39 MISG      30.17F
$$

ACROSS SOUTHWEST AND SOUTH CENTRAL LOUISIANA

CITY           SKY/WX    TMP DP  RH WIND       PRES   REMARKS
SULPHUR        CLEAR     83  51  33 SE13G18   30.17F
LAKE CHARLES   SUNNY     82  53  36 SE10      30.16F
CHENNAULT INT  MOSUNNY   81  61  50 SE7       30.17F
CAMERON PHI    PTCLDY    73  68  83 SE12      30.17F
DEQUINCY       FAIR      81  56  42 SE12      30.16F
JENNINGS       FAIR      80  59  49 S5        30.18F
LAFAYETTE      SUNNY     85  59  41 SW8       30.17F
NEW IBERIA     SUNNY     84  54  35 SW8       30.17F
ABBEVILLE      FAIR      82  61  47 SE8       30.17F
PATTERSON      SUNNY     83  60  45 SE9       30.18F
SALT POINT       N/A     71  66  84 SW6       30.17F
$$

SELECTED SITES ACROSS THE REGION

CITY           SKY/WX    TMP DP  RH WIND       PRES   REMARKS
HOUSTON BUSH   MOSUNNY   85  55  35 S14G25    30.10F
HOUSTON HOBBY  MOSUNNY   83  59  44 SE16G24   30.10F
GALVESTON      SUNNY     78  68  71 SE14      30.15F
COLLEGE STAT   SUNNY     84  54  35 S26G36    30.06F
CONROE         SUNNY     84  52  33 S22G29    30.09F
HUNTSVILLE     SUNNY     83  50  31 S16G28    30.08F
LUFKIN         SUNNY     82  57  42 S12G18    30.10F
SHREVEPORT     SUNNY     83  57  41 S15G24    30.10F
MONROE         SUNNY     83  56  39 S7        30.15F
NATCHEZ MS     SUNNY     82  55  39 SE6       30.17F
BATON ROUGE    SUNNY     84  60  44 SE6       30.17F
N.O. INTL ARPT MOSUNNY   81  62  52 SE13      30.19F
SLIDELL        SUNNY     81  58  45 SE15      30.19F
$$

MARINE REPORTS

STATION/POSITION TIME  SKY/WX   TEMP    WIND        PRES    VSBY
                                AIR SEA DIR/SP/G
                 (UTC)          (F)     (DEG/KT/KT) (MB)    (MI)
BUOY 30 S HIGH I 1850            71 73  150/ 10/ 12 1021.1F
WVE H/P(F/S)=  2/ 6

SEA RIM ST PARK  1800            72     190/  9/ 10 1022.3F
PORT ARTHUR      1848               72  190/  9/ 13 1021.6F
SABINE PASS N    1848            74 75  140/ 10/ 12 1023.0F
TEXAS POINT      NOT AVBL
CALCASIEU PASS   1848            73 72  150/  8/ 13   N/A
LK CHARLES BEACH 1848            81 74              1021.8F
MARSH ISLAND     1800            72                   N/A
FRESH WATER LOCK 1848            73 71  150/  6/  8 1022.0F
AMERADA PASS     1848            78 59  150/  1/  5 1021.8F
$$



USA.gov is the U.S. government's official web portal to all federal, state and local government web resources and services.